PDT,Max TemperatureF,Mean TemperatureF,Min TemperatureF,Max Dew PointF,MeanDew PointF,Min DewpointF,Max Humidity, Mean Humidity, Min Humidity, Max Sea Level PressureIn, Mean Sea Level PressureIn, Min Sea Level PressureIn, Max VisibilityMiles, Mean VisibilityMiles, Min VisibilityMiles, Max Wind SpeedMPH, Mean Wind SpeedMPH, Max Gust SpeedMPH,PrecipitationIn, CloudCover, Events, WindDirDegrees
2012-10-1,69,54,38,48,39,29,70,47,19,30.28,30.09,29.56,15,15,15,15,6,20,0.00,7,,250
2012-10-2,60,53,43,42,26,14,76,44,22,30.27,30.04,29.41,15,15,15,26,9,24,0.00,5,,356
2012-10-3,57,46,32,34,25,16,83,52,20,30.61,30.47,30.13,15,15,15,16,5,,0.00,1,,1
2012-10-4,59,44,28,32,24,18,93,58,25,30.52,30.45,30.35,15,15,15,16,5,,0.00,0,,64
2012-10-5,60,42,23,28,22,13,86,48,23,30.56,30.46,30.35,15,15,15,15,3,,0.00,0,,326
2012-10-6,68,44,19,34,27,18,86,51,24,30.51,30.35,29.97,15,15,15,15,3,,0.00,1,,300
2012-10-7,73,52,30,39,32,28,100,50,22,30.28,30.04,29.62,15,15,15,7,2,,0.16,3,,320
2012-10-8,71,53,32,38,34,28,97,61,25,30.10,29.95,29.62,15,15,15,17,6,,0.01,4,,10
2012-10-9,73,52,28,39,33,27,96,61,29,30.18,30.08,29.96,,,,8,3,,0.02,2,,300
2012-10-10,69,48,26,39,33,26,93,58,28,30.06,29.97,29.88,15,15,15,12,3,,0.02,1,,268
2012-10-11,68,46,24,36,30,22,93,60,27,30.38,30.05,29.77,15,15,15,10,3,,0.00,3,,90
2012-10-12,53,39,25,48,36,24,92,67,47,30.04,29.81,29.69,15,15,15,12,4,,0.00,8,Fog-Rain,-1
2012-10-13,41,40,26,52,46,28,100,91,82,30.07,30.03,29.93,15,8,1,7,0,,0.00,8,Rain,115
2012-10-14,62,46,29,52,43,33,100,70,31,29.97,29.84,29.74,15,8,0,14,3,18,0.00,7,Fog-Rain,237
2012-10-15,64,52,40,45,40,32,93,60,34,29.88,29.72,29.55,15,12,8,22,5,20,0.00,6,Rain,230
2012-10-16,65,48,32,48,35,27,88,59,38,30.01,29.66,29.07,15,14,10,28,9,43,0.01,5,Rain,239
2012-10-17,53,46,38,44,33,27,93,71,38,30.32,30.04,29.14,10,10,10,23,8,,0.01,4,Fog,55
2012-10-18,55,45,33,37,35,31,92,69,47,30.21,30.03,29.83,15,14,3,22,8,,0.08,7,Rain-Thunderstorm,357
2012-10-19,53,42,30,46,40,31,100,79,51,29.99,29.68,29.56,15,14,10,16,3,,0.00,7,Fog-Rain,241
2012-10-20,63,48,33,39,28,19,93,65,37,29.80,29.69,29.43,15,15,15,16,7,,0.00,5,,239
2012-10-21,42,35,27,34,29,22,93,79,47,30.12,29.90,29.82,15,10,2,17,3,,0.00,5,Snow,340
2012-10-22,45,32,20,32,27,20,93,74,51,30.19,29.86,29.61,15,10,5,10,3,,0.00,7,Fog-Snow,208
2012-10-23,37,34,30,36,32,30,100,92,81,29.94,29.85,29.77,10,4,0,13,3,,0.20,8,Fog-Snow,-1
2012-10-24,35,32,30,32,28,25,93,82,71,30.13,30.05,29.87,8,4,1,21,2,,0.00,8,Fog-Snow,-1
2012-10-25,39,34,26,34,31,21,100,85,65,30.44,30.34,30.02,15,9,1,24,5,,0.00,8,Fog-Snow,-1
2012-10-26,37,28,20,36,31,15,100,90,49,30.33,30.24,30.12,4,2,0,17,1,,0.00,8,Fog-Snow,20
2012-10-27,37,28,19,36,29,13,100,88,52,30.38,30.07,29.86,3,2,0,12,2,,0.00,8,Fog-Rain-Snow,-1
2012-10-28,42,27,12,41,33,11,100,88,44,30.35,30.00,29.88,10,4,2,13,2,,0.00,8,Fog,270
2012-10-29,48,36,25,43,37,24,100,90,81,30.18,29.91,29.77,15,5,1,14,4,,0.02,6,Rain,314
2012-10-30,44,36,29,43,39,32,100,94,61,30.02,29.94,29.90,15,6,0,10,2,,0.00,8,Fog-Rain,-1
2012-10-31,46,36,22,45,39,17,100,91,75,30.33,29.85,29.68,4,2,0,13,3,,0.03,8,Fog,-1